EW6887 Weather Reports


time (UTC)temp
C
wind
direction
speed
KPH
gust
KPH
rain 1hr
cm
rain 24hr
cm
rain mn
cm
humidity
%
barometer
mb
20260503004523 11 236 0.0 0.0 0.00 0.00 0.00 53 1017.2
20260503003013 11 236 0.0 0.0 0.00 0.00 0.00 54 1017.3
20260503001505 12 236 0.0 0.0 0.00 0.00 0.00 53 1017.4
20260503000104 12 236 0.0 0.0 0.00 0.00 0.00 52 1017.5
20260502234558 12 236 0.0 0.0 0.00 0.00 0.00 51 1017.6
20260502233038 12 238 0.0 0.0 0.00 0.00 0.00 51 1017.7
20260502231534 12 242 0.0 0.0 0.00 0.00 0.00 52 1017.7
20260502230022 13 246 0.0 0.0 0.00 0.00 0.00 52 1017.8
20260502224545 13 246 0.0 0.0 0.00 0.00 0.00 51 1017.8
20260502223034 13 248 0.0 0.0 0.00 0.00 0.00 50 1018.0
20260502221524 14 258 0.0 0.0 0.00 0.00 0.00 48 1017.9
20260502220018 15 298 0.0 0.0 0.00 0.00 0.00 47 1017.9
20260502214510 15 298 0.0 0.0 0.00 0.00 0.00 47 1018.0
20260502213004 15 337 0.0 0.0 0.00 0.00 0.00 46 1018.1
20260502211556 15 269 0.0 0.0 0.00 0.00 0.00 46 1017.9
20260502210107 15 265 0.0 0.0 0.00 0.00 0.00 46 1018.0
20260502204550 15 227 0.0 0.0 0.00 0.00 0.00 47 1018.1
20260502203044 15 227 0.0 0.0 0.00 0.00 0.00 47 1018.1
20260502201544 15 227 0.0 0.0 0.00 0.00 0.00 48 1018.2
20260502200026 15 227 0.0 0.0 0.00 0.00 0.00 48 1018.2
20260502194518 15 227 0.0 0.0 0.00 0.00 0.00 47 1018.2
20260502193010 16 227 0.0 0.0 0.00 0.00 0.00 46 1018.2
20260502191656 16 210 0.0 0.0 0.00 0.00 0.00 44 1018.1
20260502190050 17 57 0.0 0.0 0.00 0.00 0.00 41 1018.1
20260502184538 18 57 0.0 0.0 0.00 0.00 0.00 39 1017.9
20260502183026 20 57 0.0 0.0 0.00 0.00 0.00 36 1017.8
20260502181512 21 57 0.0 0.0 0.00 0.00 0.00 33 1017.8
20260502163016 23 87 0.0 0.0 0.00 0.00 0.00 26 1018.3
20260502161609 23 54 0.0 0.0 0.00 0.00 0.00 26 1018.5
20260502151553 24 43 0.0 0.0 0.00 0.00 0.00 26 1019.1
20260502140123 23 47 0.0 0.0 0.00 0.00 0.00 25 1020.0
20260502123102 24 22 0.0 0.0 0.00 0.00 0.00 25 1021.0
20260502121552 23 75 0.0 0.0 0.00 0.00 0.00 26 1021.2
20260502114538 23 95 0.0 0.0 0.00 0.00 0.00 26 1021.6
20260502113035 23 5 0.0 0.0 0.00 0.00 0.00 29 1021.8
20260502111521 22 34 0.0 0.0 0.00 0.00 0.00 28 1022.0
20260502110110 22 56 0.0 0.0 0.00 0.00 0.00 27 1022.2
20260502104502 22 102 0.0 0.0 0.00 0.00 0.00 26 1022.4
20260502103105 21 14 0.0 0.0 0.00 0.00 0.00 29 1022.6
20260502101557 22 33 0.0 0.0 0.00 0.00 0.00 31 1022.9
20260502091510 20 338 0.0 0.0 0.00 0.00 0.00 35 1023.6
20260502071519 17 65 0.0 0.0 0.00 0.00 0.00 50 1024.3
20260502070115 17 48 0.0 0.0 0.00 0.00 0.00 51 1024.3
20260502064540 15 342 0.0 0.0 0.00 0.00 0.00 54 1024.3
20260502063037 14 334 0.0 0.0 0.00 0.00 0.00 59 1024.4
20260502061622 13 332 0.0 0.0 0.00 0.00 0.00 61 1024.5
20260502060014 12 227 0.0 0.0 0.00 0.00 0.00 67 1024.6
20260502054518 10 226 0.0 0.0 0.00 0.00 0.00 72 1024.6
20260502053100 8 226 0.0 0.0 0.00 0.00 0.00 77 1024.6
20260502051553 7 226 0.0 0.0 0.00 0.00 0.00 79 1024.5
20260502050052 6 226 0.0 0.0 0.00 0.00 0.00 82 1024.5
20260502044555 6 226 0.0 0.0 0.00 0.00 0.00 83 1024.5
20260502043048 5 209 0.0 0.0 0.00 0.00 0.00 83 1024.4
20260502041545 5 209 0.0 0.0 0.00 0.00 0.00 83 1024.4
20260502040030 5 209 0.0 0.0 0.00 0.00 0.00 83 1024.2
20260502034524 5 209 0.0 0.0 0.00 0.00 0.00 82 1024.2
20260502033014 5 209 0.0 0.0 0.00 0.00 0.00 82 1024.3
20260502031602 5 239 0.0 0.0 0.00 0.00 0.00 81 1024.3
20260502030054 5 239 0.0 0.0 0.00 0.00 0.00 80 1024.5
20260502024641 5 239 0.0 0.0 0.00 0.00 0.00 79 1024.5
20260502023044 6 239 0.0 0.0 0.00 0.00 0.00 78 1024.6
20260502021529 6 239 0.0 0.0 0.00 0.00 0.00 78 1024.5
20260502020021 6 239 0.0 0.0 0.00 0.00 0.00 76 1024.5
20260502014615 7 239 0.0 0.0 0.00 0.00 0.00 76 1024.6
20260502013109 7 239 0.0 0.0 0.00 0.00 0.00 76 1024.5
20260502011606 7 240 0.0 0.0 0.00 0.00 0.00 76 1024.6
20260502010057 7 240 0.0 0.0 0.00 0.00 0.00 75 1024.7